Time,TemperatureF,DewpointF,PressureIn,WindDirection,WindDirectionDegrees,WindSpeedMPH,WindSpeedGustMPH,Humidity,HourlyPrecipIn,Conditions,Clouds,dailyrainin,SoftwareType,DateUTC
2013-02-13 00:00:00,70.0,63.6,29.97,South,180,0.0,2.2,80,0.00,,,0.00,WSDL version 420,2013-02-13 05:00:00,
2013-02-13 00:05:00,70.0,63.5,29.94,South,180,0.0,0.0,80,0.00,,,0.00,WSDL version 420,2013-02-13 05:05:00,
2013-02-13 00:10:00,69.8,63.4,29.94,South,180,0.9,0.0,80,0.00,,,0.00,WSDL version 420,2013-02-13 05:10:00,
2013-02-13 00:15:00,69.8,63.4,29.94,South,180,0.0,0.0,81,0.00,,,0.00,WSDL version 420,2013-02-13 05:15:00,
2013-02-13 00:20:00,69.6,63.6,29.94,South,180,0.0,0.0,81,0.00,,,0.00,WSDL version 420,2013-02-13 05:20:00,
2013-02-13 00:25:00,69.5,63.4,29.94,South,180,0.0,0.0,81,0.00,,,0.00,WSDL version 420,2013-02-13 05:25:00,
2013-02-13 00:30:00,69.4,63.4,29.94,South,180,0.0,0.0,81,0.00,,,0.00,WSDL version 420,2013-02-13 05:30:00,
2013-02-13 00:35:00,69.3,63.5,29.94,South,180,0.0,0.0,82,0.00,,,0.00,WSDL version 420,2013-02-13 05:35:00,
2013-02-13 00:40:00,69.3,63.6,29.97,South,180,0.0,0.0,82,0.00,,,0.00,WSDL version 420,2013-02-13 05:40:00,
2013-02-13 00:45:00,69.1,63.4,29.97,South,180,0.0,0.0,82,0.00,,,0.00,WSDL version 420,2013-02-13 05:45:00,
2013-02-13 00:50:00,69.0,63.5,29.97,South,180,0.0,0.0,83,0.00,,,0.00,WSDL version 420,2013-02-13 05:50:00,
2013-02-13 00:55:00,68.9,63.6,29.94,South,180,0.0,0.0,83,0.00,,,0.00,WSDL version 420,2013-02-13 05:55:00,
2013-02-13 01:00:00,68.8,63.5,29.94,South,180,0.0,0.0,83,0.00,,,0.00,WSDL version 420,2013-02-13 06:00:00,
2013-02-13 01:05:00,68.7,63.4,29.94,South,180,0.0,0.0,83,0.00,,,0.00,WSDL version 420,2013-02-13 06:05:00,
2013-02-13 01:10:00,68.5,63.3,29.94,South,180,0.0,0.0,83,0.00,,,0.00,WSDL version 420,2013-02-13 06:10:00,
2013-02-13 01:15:00,68.5,63.6,29.94,South,180,0.0,0.0,84,0.00,,,0.00,WSDL version 420,2013-02-13 06:15:00,
2013-02-13 01:20:00,68.4,63.5,29.91,South,180,0.0,0.0,84,0.00,,,0.00,WSDL version 420,2013-02-13 06:20:00,
2013-02-13 01:25:00,68.4,63.7,29.91,South,180,0.0,0.0,86,0.00,,,0.00,WSDL version 420,2013-02-13 06:25:00,
2013-02-13 01:30:00,68.2,63.7,29.91,South,180,0.0,0.0,86,0.00,,,0.00,WSDL version 420,2013-02-13 06:30:00,
2013-02-13 01:35:00,68.1,63.6,29.91,South,180,0.0,0.0,86,0.00,,,0.00,WSDL version 420,2013-02-13 06:35:00,
2013-02-13 01:40:00,68.0,63.5,29.91,South,180,0.0,0.0,86,0.00,,,0.00,WSDL version 420,2013-02-13 06:40:00,
2013-02-13 01:45:00,67.8,63.7,29.91,South,180,0.0,0.0,87,0.00,,,0.00,WSDL version 420,2013-02-13 06:45:00,
2013-02-13 01:50:00,67.8,63.7,29.91,South,180,0.0,0.0,87,0.00,,,0.00,WSDL version 420,2013-02-13 06:50:00,
2013-02-13 01:55:00,67.8,63.9,29.91,South,180,0.0,0.0,88,0.00,,,0.00,WSDL version 420,2013-02-13 06:55:00,
2013-02-13 02:00:00,67.8,64.0,29.91,South,180,0.0,0.0,88,0.00,,,0.00,WSDL version 420,2013-02-13 07:00:00,
2013-02-13 02:05:00,67.6,63.9,29.91,South,180,0.0,0.0,88,0.00,,,0.00,WSDL version 420,2013-02-13 07:05:00,
2013-02-13 02:10:00,67.6,63.8,29.94,South,180,0.0,0.0,88,0.00,,,0.00,WSDL version 420,2013-02-13 07:10:00,
2013-02-13 02:15:00,67.5,63.7,29.94,South,180,0.0,0.0,88,0.00,,,0.00,WSDL version 420,2013-02-13 07:15:00,
2013-02-13 02:20:00,67.4,63.7,29.94,South,180,0.0,0.0,88,0.00,,,0.00,WSDL version 420,2013-02-13 07:20:00,
2013-02-13 02:25:00,67.4,63.9,29.94,South,180,0.0,0.0,89,0.00,,,0.00,WSDL version 420,2013-02-13 07:25:00,
2013-02-13 02:30:00,67.3,63.9,29.94,South,180,0.0,0.0,89,0.00,,,0.00,WSDL version 420,2013-02-13 07:30:00,
2013-02-13 02:35:00,67.3,63.9,29.94,South,180,0.0,0.9,89,0.00,,,0.00,WSDL version 420,2013-02-13 07:35:00,
2013-02-13 02:40:00,67.3,63.9,29.94,South,180,0.0,0.9,89,0.00,,,0.00,WSDL version 420,2013-02-13 07:40:00,
2013-02-13 02:45:00,67.1,64.0,29.94,South,180,0.0,0.0,90,0.00,,,0.00,WSDL version 420,2013-02-13 07:45:00,
2013-02-13 02:50:00,67.1,64.1,29.94,South,180,0.0,0.0,90,0.00,,,0.00,WSDL version 420,2013-02-13 07:50:00,
2013-02-13 02:55:00,67.1,64.1,29.94,South,180,0.0,0.0,90,0.00,,,0.00,WSDL version 420,2013-02-13 07:55:00,
2013-02-13 03:00:00,67.1,64.1,29.94,South,180,0.0,0.0,90,0.00,,,0.00,WSDL version 420,2013-02-13 08:00:00,
2013-02-13 03:05:00,67.1,64.1,29.94,South,180,0.0,0.0,90,0.00,,,0.00,WSDL version 420,2013-02-13 08:05:00,
2013-02-13 03:10:00,66.9,63.9,29.94,South,180,0.0,0.0,90,0.00,,,0.00,WSDL version 420,2013-02-13 08:10:00,
2013-02-13 03:15:00,66.9,63.9,29.94,South,180,0.0,0.0,90,0.00,,,0.00,WSDL version 420,2013-02-13 08:15:00,
2013-02-13 03:20:00,66.7,63.7,29.94,South,180,0.0,0.0,90,0.00,,,0.00,WSDL version 420,2013-02-13 08:20:00,
2013-02-13 03:25:00,66.7,64.1,29.94,South,180,0.0,0.0,91,0.00,,,0.00,WSDL version 420,2013-02-13 08:25:00,
2013-02-13 03:30:00,66.6,63.8,29.94,South,180,0.0,0.0,90,0.00,,,0.00,WSDL version 420,2013-02-13 08:30:00,
2013-02-13 03:35:00,66.6,63.5,29.94,South,180,0.0,0.0,90,0.00,,,0.00,WSDL version 420,2013-02-13 08:35:00,
2013-02-13 03:40:00,66.6,63.9,29.97,South,180,0.0,0.0,91,0.00,,,0.00,WSDL version 420,2013-02-13 08:40:00,
2013-02-13 03:45:00,66.5,63.8,29.97,South,180,0.0,0.0,91,0.00,,,0.00,WSDL version 420,2013-02-13 08:45:00,
2013-02-13 03:50:00,66.3,63.6,29.94,South,180,0.0,0.0,91,0.00,,,0.00,WSDL version 420,2013-02-13 08:50:00,
2013-02-13 03:55:00,66.2,63.5,29.94,South,180,0.0,0.0,91,0.00,,,0.00,WSDL version 420,2013-02-13 08:55:00,
2013-02-13 04:00:00,66.0,63.4,29.94,South,180,0.0,0.0,91,0.00,,,0.00,WSDL version 420,2013-02-13 09:00:00,
2013-02-13 04:05:00,65.9,63.2,29.94,South,180,0.0,0.0,91,0.00,,,0.00,WSDL version 420,2013-02-13 09:05:00,
2013-02-13 04:10:00,65.7,62.9,29.94,South,180,0.0,0.0,90,0.00,,,0.00,WSDL version 420,2013-02-13 09:10:00,
2013-02-13 04:15:00,65.7,62.8,29.94,South,180,0.0,0.0,91,0.00,,,0.00,WSDL version 420,2013-02-13 09:15:00,
2013-02-13 04:20:00,65.5,62.9,29.94,South,180,0.0,0.0,91,0.00,,,0.00,WSDL version 420,2013-02-13 09:20:00,
2013-02-13 04:25:00,65.4,62.8,29.94,South,180,0.0,0.0,91,0.00,,,0.00,WSDL version 420,2013-02-13 09:25:00,
2013-02-13 04:30:00,65.3,62.4,29.94,South,180,0.0,0.0,91,0.00,,,0.00,WSDL version 420,2013-02-13 09:30:00,
2013-02-13 04:35:00,65.3,62.6,29.94,North,0,0.0,0.0,91,0.00,,,0.00,WSDL version 420,2013-02-13 09:35:00,
2013-02-13 04:40:00,65.3,62.6,29.94,North,0,0.0,0.0,91,0.00,,,0.00,WSDL version 420,2013-02-13 09:40:00,
2013-02-13 04:45:00,65.3,62.6,29.94,North,-999,-999.0,-999.0,91,0.00,,,0.00,WSDL version 420,2013-02-13 09:45:00,
2013-02-13 04:50:00,65.3,62.6,29.94,North,-999,-999.0,-999.0,91,0.00,,,0.00,WSDL version 420,2013-02-13 09:50:00,
2013-02-13 04:55:00,65.1,62.5,29.94,North,-999,-999.0,-999.0,91,0.00,,,0.00,WSDL version 420,2013-02-13 09:55:00,
2013-02-13 05:00:00,65.3,62.6,29.94,North,-999,-999.0,-999.0,91,0.00,,,0.00,WSDL version 420,2013-02-13 10:00:00,
2013-02-13 05:05:00,65.3,62.6,29.94,North,-999,-999.0,-999.0,91,0.00,,,0.00,WSDL version 420,2013-02-13 10:05:00,
2013-02-13 05:10:00,65.1,62.5,29.94,North,-999,-999.0,-999.0,91,0.00,,,0.00,WSDL version 420,2013-02-13 10:10:00,
2013-02-13 05:15:00,65.3,62.6,29.94,North,-999,-999.0,-999.0,91,0.00,,,0.00,WSDL version 420,2013-02-13 10:15:00,
2013-02-13 05:20:00,65.3,62.9,29.94,North,-999,-999.0,-999.0,92,0.00,,,0.00,WSDL version 420,2013-02-13 10:20:00,
2013-02-13 05:25:00,65.3,63.0,29.94,North,-999,-999.0,-999.0,92,0.00,,,0.00,WSDL version 420,2013-02-13 10:25:00,
2013-02-13 05:30:00,65.5,63.2,29.94,North,-999,-999.0,-999.0,92,0.00,,,0.00,WSDL version 420,2013-02-13 10:30:00,
2013-02-13 05:35:00,65.5,63.2,29.94,North,-999,-999.0,-999.0,92,0.00,,,0.00,WSDL version 420,2013-02-13 10:35:00,
2013-02-13 05:40:00,65.7,63.3,29.94,North,-999,-999.0,-999.0,92,0.00,,,0.00,WSDL version 420,2013-02-13 10:40:00,
2013-02-13 05:45:00,65.7,63.3,29.94,North,-999,-999.0,-999.0,92,0.00,,,0.00,WSDL version 420,2013-02-13 10:45:00,
2013-02-13 05:50:00,65.8,63.9,29.94,North,-999,-999.0,-999.0,93,0.00,,,0.00,WSDL version 420,2013-02-13 10:50:00,
2013-02-13 05:55:00,65.8,63.9,29.94,South,180,0.0,0.0,93,0.00,,,0.00,WSDL version 420,2013-02-13 10:55:00,
2013-02-13 06:00:00,65.8,63.9,29.94,South,180,0.0,0.0,93,0.00,,,0.00,WSDL version 420,2013-02-13 11:00:00,
2013-02-13 06:05:00,65.8,63.9,29.94,South,180,0.0,0.0,93,0.00,,,0.00,WSDL version 420,2013-02-13 11:05:00,
2013-02-13 06:10:00,66.0,64.0,29.94,South,180,0.0,0.0,93,0.00,,,0.00,WSDL version 420,2013-02-13 11:10:00,
2013-02-13 06:15:00,66.1,64.1,29.94,South,180,0.0,0.0,93,0.00,,,0.00,WSDL version 420,2013-02-13 11:15:00,
2013-02-13 06:20:00,66.1,64.1,29.94,South,180,0.0,0.0,93,0.00,,,0.00,WSDL version 420,2013-02-13 11:20:00,
2013-02-13 06:25:00,66.2,64.2,29.94,South,180,0.0,0.0,93,0.00,,,0.00,WSDL version 420,2013-02-13 11:25:00,
2013-02-13 06:30:00,66.2,64.2,29.94,South,180,0.0,0.0,93,0.00,,,0.00,WSDL version 420,2013-02-13 11:30:00,
2013-02-13 06:35:00,66.2,64.2,29.94,South,180,0.0,0.0,93,0.00,,,0.00,WSDL version 420,2013-02-13 11:35:00,
2013-02-13 06:40:00,66.2,64.2,29.94,SSE,158,0.0,1.3,93,0.00,,,0.00,WSDL version 420,2013-02-13 11:40:00,
2013-02-13 06:45:00,66.4,64.4,29.94,South,171,0.0,1.3,93,0.00,,,0.00,WSDL version 420,2013-02-13 11:45:00,
2013-02-13 06:50:00,66.4,64.4,29.94,SSE,158,0.0,1.3,93,0.00,,,0.00,WSDL version 420,2013-02-13 11:50:00,
2013-02-13 06:55:00,66.5,64.5,29.94,SSE,158,0.0,1.3,93,0.00,,,0.00,WSDL version 420,2013-02-13 11:55:00,
2013-02-13 07:00:00,66.7,64.7,29.94,South,180,0.0,0.9,93,0.00,,,0.00,WSDL version 420,2013-02-13 12:00:00,
2013-02-13 07:05:00,66.7,64.8,29.94,SSW,203,0.0,0.0,93,0.00,,,0.00,WSDL version 420,2013-02-13 12:05:00,
2013-02-13 07:10:00,66.7,65.0,29.94,SSW,197,0.0,1.1,94,0.00,,,0.00,WSDL version 420,2013-02-13 12:10:00,
2013-02-13 07:15:00,66.9,65.3,29.94,SSW,203,0.0,1.1,94,0.00,,,0.00,WSDL version 420,2013-02-13 12:15:00,
2013-02-13 07:20:00,67.0,65.3,29.94,SSW,203,0.0,0.0,94,0.00,,,0.00,WSDL version 420,2013-02-13 12:20:00,
2013-02-13 07:25:00,67.1,65.5,29.91,SSW,203,0.0,0.0,94,0.00,,,0.00,WSDL version 420,2013-02-13 12:25:00,
2013-02-13 07:30:00,67.2,65.5,29.91,SSW,203,0.0,0.0,94,0.00,,,0.00,WSDL version 420,2013-02-13 12:30:00,
2013-02-13 07:35:00,67.3,65.7,29.91,SW,225,0.0,0.0,94,0.00,,,0.00,WSDL version 420,2013-02-13 12:35:00,
2013-02-13 07:40:00,67.5,65.8,29.91,SSW,203,0.0,0.0,94,0.00,,,0.00,WSDL version 420,2013-02-13 12:40:00,
2013-02-13 07:45:00,67.8,66.2,29.91,SSW,203,0.0,0.0,94,0.00,,,0.00,WSDL version 420,2013-02-13 12:45:00,
2013-02-13 07:50:00,68.0,66.3,29.94,SW,225,0.0,0.0,94,0.00,,,0.00,WSDL version 420,2013-02-13 12:50:00,
2013-02-13 07:55:00,68.2,66.5,29.94,South,177,0.2,1.3,94,0.00,,,0.00,WSDL version 420,2013-02-13 12:55:00,
2013-02-13 08:00:00,68.4,66.7,29.94,South,169,1.8,2.2,94,0.00,,,0.00,WSDL version 420,2013-02-13 13:00:00,
2013-02-13 08:05:00,68.6,67.0,29.94,SSE,161,0.4,2.2,94,0.00,,,0.00,WSDL version 420,2013-02-13 13:05:00,
2013-02-13 08:10:00,69.1,67.5,29.94,SSE,158,1.2,2.5,96,0.00,,,0.00,WSDL version 420,2013-02-13 13:10:00,
2013-02-13 08:15:00,69.4,68.1,29.94,SE,146,2.1,2.7,96,0.00,,,0.00,WSDL version 420,2013-02-13 13:15:00,
2013-02-13 08:20:00,69.9,68.2,29.94,South,169,1.5,2.7,94,0.00,,,0.00,WSDL version 420,2013-02-13 13:20:00,
2013-02-13 08:25:00,70.2,68.5,29.94,South,185,1.5,4.0,94,0.00,,,0.00,WSDL version 420,2013-02-13 13:25:00,
2013-02-13 08:30:00,70.5,69.0,29.94,South,169,2.7,4.0,96,0.00,,,0.00,WSDL version 420,2013-02-13 13:30:00,
2013-02-13 08:35:00,70.8,69.5,29.94,SSE,158,2.0,4.3,96,0.00,,,0.00,WSDL version 420,2013-02-13 13:35:00,
2013-02-13 08:40:00,71.2,69.8,29.94,South,169,2.3,4.3,96,0.00,,,0.00,WSDL version 420,2013-02-13 13:40:00,
2013-02-13 08:45:00,71.5,70.1,29.94,SSE,152,1.2,4.3,94,0.00,,,0.00,WSDL version 420,2013-02-13 13:45:00,
2013-02-13 08:50:00,71.9,70.2,29.94,SSW,198,3.4,4.3,94,0.00,,,0.00,WSDL version 420,2013-02-13 13:50:00,
2013-02-13 08:55:00,72.3,70.6,29.94,South,174,2.8,5.4,94,0.00,,,0.00,WSDL version 420,2013-02-13 13:55:00,
2013-02-13 09:00:00,72.8,71.1,29.94,South,172,3.4,5.4,94,0.00,,,0.00,WSDL version 420,2013-02-13 14:00:00,
2013-02-13 09:05:00,73.2,71.3,29.97,South,180,3.3,4.9,93,0.00,,,0.00,WSDL version 420,2013-02-13 14:05:00,
2013-02-13 09:10:00,73.6,71.6,29.97,South,176,3.9,7.2,93,0.00,,,0.00,WSDL version 420,2013-02-13 14:10:00,
2013-02-13 09:15:00,74.1,71.7,29.97,SSW,196,3.2,7.2,92,0.00,,,0.00,WSDL version 420,2013-02-13 14:15:00,
2013-02-13 09:20:00,74.5,72.0,29.94,South,169,4.1,10.1,91,0.00,,,0.00,WSDL version 420,2013-02-13 14:20:00,
2013-02-13 09:25:00,74.9,71.8,29.94,SE,124,3.2,10.1,89,0.00,,,0.00,WSDL version 420,2013-02-13 14:25:00,
2013-02-13 09:30:00,75.3,70.9,29.94,South,191,3.5,7.8,86,0.00,,,0.00,WSDL version 420,2013-02-13 14:30:00,
2013-02-13 09:35:00,75.5,70.8,29.94,SSW,193,3.5,8.5,84,0.00,,,0.00,WSDL version 420,2013-02-13 14:35:00,
2013-02-13 09:40:00,75.9,70.3,29.94,East,90,2.9,10.3,82,0.00,,,0.00,WSDL version 420,2013-02-13 14:40:00,
2013-02-13 09:45:00,76.3,69.9,29.94,SSE,167,5.1,10.3,80,0.00,,,0.00,WSDL version 420,2013-02-13 14:45:00,
2013-02-13 09:50:00,76.6,69.3,29.94,South,176,5.8,13.2,78,0.00,,,0.00,WSDL version 420,2013-02-13 14:50:00,
2013-02-13 09:55:00,77.0,68.9,29.97,South,184,5.1,13.2,76,0.00,,,0.00,WSDL version 420,2013-02-13 14:55:00,
2013-02-13 10:00:00,77.4,69.2,29.97,SSE,163,3.5,11.0,75,0.00,,,0.00,WSDL version 420,2013-02-13 15:00:00,
2013-02-13 10:05:00,77.9,69.3,29.97,South,177,4.4,7.6,74,0.00,,,0.00,WSDL version 420,2013-02-13 15:05:00,
2013-02-13 10:10:00,78.4,69.4,29.97,South,184,2.9,6.5,74,0.00,,,0.00,WSDL version 420,2013-02-13 15:10:00,
2013-02-13 10:15:00,78.8,69.3,29.97,South,191,4.1,6.5,72,0.00,,,0.00,WSDL version 420,2013-02-13 15:15:00,
2013-02-13 10:20:00,79.0,68.4,29.97,SSE,148,6.6,12.8,69,0.00,,,0.00,WSDL version 420,2013-02-13 15:20:00,
2013-02-13 10:25:00,79.3,68.4,29.97,SSW,205,4.1,12.8,69,0.00,,,0.00,WSDL version 420,2013-02-13 15:25:00,
2013-02-13 10:30:00,79.5,68.1,29.97,SW,231,4.2,9.6,68,0.00,,,0.00,WSDL version 420,2013-02-13 15:30:00,
2013-02-13 10:35:00,79.5,67.7,29.97,South,177,6.0,10.7,66,0.00,,,0.00,WSDL version 420,2013-02-13 15:35:00,
2013-02-13 10:40:00,79.6,67.4,29.97,South,174,5.0,11.2,66,0.00,,,0.00,WSDL version 420,2013-02-13 15:40:00,
2013-02-13 10:45:00,80.2,67.6,29.97,South,173,5.0,11.2,65,0.00,,,0.00,WSDL version 420,2013-02-13 15:45:00,
2013-02-13 10:50:00,80.5,67.7,29.94,South,170,5.3,10.5,64,0.00,,,0.00,WSDL version 420,2013-02-13 15:50:00,
2013-02-13 10:55:00,80.7,67.4,29.94,SW,214,4.2,10.5,64,0.00,,,0.00,WSDL version 420,2013-02-13 15:55:00,
2013-02-13 11:00:00,81.1,67.3,29.94,SE,129,4.0,8.5,63,0.00,,,0.00,WSDL version 420,2013-02-13 16:00:00,
2013-02-13 11:05:00,81.5,67.4,29.94,South,174,5.6,8.5,62,0.00,,,0.00,WSDL version 420,2013-02-13 16:05:00,
2013-02-13 11:10:00,81.7,67.0,29.94,South,183,4.7,8.1,60,0.00,,,0.00,WSDL version 420,2013-02-13 16:10:00,
2013-02-13 11:15:00,82.0,66.9,29.94,SSE,158,4.7,12.3,60,0.00,,,0.00,WSDL version 420,2013-02-13 16:15:00,
2013-02-13 11:20:00,82.3,66.8,29.94,SE,135,4.8,12.3,59,0.00,,,0.00,WSDL version 420,2013-02-13 16:20:00,
2013-02-13 11:25:00,82.8,66.6,29.94,SSE,161,4.8,8.7,57,0.00,,,0.00,WSDL version 420,2013-02-13 16:25:00,
2013-02-13 11:30:00,82.9,66.2,29.94,SSE,165,6.3,9.6,57,0.00,,,0.00,WSDL version 420,2013-02-13 16:30:00,
2013-02-13 11:35:00,83.1,65.8,29.94,SE,146,6.1,9.6,56,0.00,,,0.00,WSDL version 420,2013-02-13 16:35:00,
2013-02-13 11:40:00,83.1,66.1,29.94,South,176,4.1,9.6,57,0.00,,,0.00,WSDL version 420,2013-02-13 16:40:00,
2013-02-13 11:45:00,83.6,66.4,29.94,SSE,167,4.8,8.7,54,0.00,,,0.00,WSDL version 420,2013-02-13 16:45:00,
2013-02-13 11:50:00,83.3,65.4,29.94,SSW,206,4.6,9.6,55,0.00,,,0.00,WSDL version 420,2013-02-13 16:50:00,
2013-02-13 11:55:00,83.8,66.3,29.94,SSE,167,4.7,9.6,56,0.00,,,0.00,WSDL version 420,2013-02-13 16:55:00,
2013-02-13 12:00:00,84.2,65.5,29.94,SE,146,6.8,14.3,53,0.00,,,0.00,WSDL version 420,2013-02-13 17:00:00,
2013-02-13 12:05:00,83.9,65.0,29.94,South,176,4.1,14.3,53,0.00,,,0.00,WSDL version 420,2013-02-13 17:05:00,
2013-02-13 12:10:00,84.0,65.2,29.94,SSW,210,4.8,8.9,52,0.00,,,0.00,WSDL version 420,2013-02-13 17:10:00,
2013-02-13 12:15:00,84.2,64.0,29.94,SSE,158,6.3,10.5,50,0.00,,,0.00,WSDL version 420,2013-02-13 17:15:00,
2013-02-13 12:20:00,84.7,64.2,29.91,South,174,5.8,10.5,50,0.00,,,0.00,WSDL version 420,2013-02-13 17:20:00,
2013-02-13 12:25:00,85.1,64.4,29.91,South,184,6.6,10.1,50,0.00,,,0.00,WSDL version 420,2013-02-13 17:25:00,
2013-02-13 12:30:00,85.6,65.1,29.91,SSE,154,4.4,10.1,50,0.00,,,0.00,WSDL version 420,2013-02-13 17:30:00,
2013-02-13 12:35:00,86.0,65.4,29.91,South,176,3.1,7.2,50,0.00,,,0.00,WSDL version 420,2013-02-13 17:35:00,
2013-02-13 12:40:00,86.1,64.9,29.91,SSE,165,4.6,7.8,49,0.00,,,0.00,WSDL version 420,2013-02-13 17:40:00,
2013-02-13 12:45:00,86.7,65.6,29.91,SSE,164,4.0,7.8,49,0.00,,,0.00,WSDL version 420,2013-02-13 17:45:00,
2013-02-13 12:50:00,86.7,64.7,29.88,South,176,5.1,9.6,48,0.00,,,0.00,WSDL version 420,2013-02-13 17:50:00,
2013-02-13 12:55:00,86.1,63.6,29.88,South,183,4.1,9.6,47,0.00,,,0.00,WSDL version 420,2013-02-13 17:55:00,
2013-02-13 13:00:00,86.0,63.6,29.88,South,169,3.5,8.5,47,0.00,,,0.00,WSDL version 420,2013-02-13 18:00:00,
2013-02-13 13:05:00,86.4,63.6,29.85,South,174,4.2,9.8,47,0.00,,,0.00,WSDL version 420,2013-02-13 18:05:00,
2013-02-13 13:10:00,87.1,64.2,29.85,SSW,196,3.6,14.8,47,0.00,,,0.00,WSDL version 420,2013-02-13 18:10:00,
2013-02-13 13:15:00,86.6,63.1,29.85,SSW,199,5.0,14.8,46,0.00,,,0.00,WSDL version 420,2013-02-13 18:15:00,
2013-02-13 13:20:00,86.9,63.0,29.85,South,186,5.8,12.5,45,0.00,,,0.00,WSDL version 420,2013-02-13 18:20:00,
2013-02-13 13:25:00,87.2,63.5,29.91,South,185,4.2,12.5,45,0.00,,,0.00,WSDL version 420,2013-02-13 18:25:00,
2013-02-13 13:30:00,87.4,63.5,29.91,South,176,3.9,8.1,45,0.00,,,0.00,WSDL version 420,2013-02-13 18:30:00,
2013-02-13 13:35:00,87.3,63.4,29.88,South,170,6.7,13.2,45,0.00,,,0.00,WSDL version 420,2013-02-13 18:35:00,
2013-02-13 13:40:00,87.2,62.8,29.88,SSW,193,4.4,13.2,44,0.00,,,0.00,WSDL version 420,2013-02-13 18:40:00,
2013-02-13 13:45:00,86.2,61.7,29.88,South,180,4.3,9.8,44,0.00,,,0.00,WSDL version 420,2013-02-13 18:45:00,
2013-02-13 13:50:00,86.3,62.5,29.88,South,189,3.6,7.4,45,0.00,,,0.00,WSDL version 420,2013-02-13 18:50:00,
2013-02-13 13:55:00,86.8,63.0,29.88,SSW,212,2.2,6.5,45,0.00,,,0.00,WSDL version 420,2013-02-13 18:55:00,
2013-02-13 14:00:00,86.4,62.4,29.88,SSW,199,4.1,6.5,44,0.00,,,0.00,WSDL version 420,2013-02-13 19:00:00,
2013-02-13 14:05:00,85.2,61.3,29.85,South,170,2.7,6.5,45,0.00,,,0.00,WSDL version 420,2013-02-13 19:05:00,
2013-02-13 14:10:00,85.8,62.5,29.85,SSW,194,3.1,8.5,46,0.00,,,0.00,WSDL version 420,2013-02-13 19:10:00,
2013-02-13 14:15:00,86.5,62.7,29.85,South,188,4.4,8.5,45,0.00,,,0.00,WSDL version 420,2013-02-13 19:15:00,
2013-02-13 14:20:00,86.5,62.5,29.85,South,180,6.1,9.8,45,0.00,,,0.00,WSDL version 420,2013-02-13 19:20:00,
2013-02-13 14:25:00,87.3,62.9,29.85,SSE,161,5.2,11.2,44,0.00,,,0.00,WSDL version 420,2013-02-13 19:25:00,
2013-02-13 14:30:00,87.9,62.6,29.85,South,177,6.2,11.2,41,0.00,,,0.00,WSDL version 420,2013-02-13 19:30:00,
2013-02-13 14:35:00,88.1,61.8,29.85,South,188,2.2,10.7,41,0.00,,,0.00,WSDL version 420,2013-02-13 19:35:00,
2013-02-13 14:40:00,88.3,62.3,29.85,SSE,150,7.2,10.3,42,0.00,,,0.00,WSDL version 420,2013-02-13 19:40:00,
2013-02-13 14:45:00,87.4,61.6,29.85,SSW,195,3.7,10.3,42,0.00,,,0.00,WSDL version 420,2013-02-13 19:45:00,
2013-02-13 14:50:00,86.8,61.2,29.85,South,180,6.1,8.9,43,0.00,,,0.00,WSDL version 420,2013-02-13 19:50:00,
2013-02-13 14:55:00,87.1,61.9,29.85,SSW,206,4.1,8.9,43,0.00,,,0.00,WSDL version 420,2013-02-13 19:55:00,
2013-02-13 15:00:00,87.5,61.0,29.85,SSW,210,4.9,8.7,41,0.00,,,0.00,WSDL version 420,2013-02-13 20:00:00,
2013-02-13 15:05:00,87.9,61.8,29.83,South,188,4.8,8.7,42,0.00,,,0.00,WSDL version 420,2013-02-13 20:05:00,
2013-02-13 15:10:00,87.7,61.5,29.83,South,180,5.6,7.8,42,0.00,,,0.00,WSDL version 420,2013-02-13 20:10:00,
2013-02-13 15:15:00,87.2,61.3,29.83,South,188,4.1,7.4,42,0.00,,,0.00,WSDL version 420,2013-02-13 20:15:00,
2013-02-13 15:20:00,87.1,61.6,29.83,South,180,4.0,6.0,43,0.00,,,0.00,WSDL version 420,2013-02-13 20:20:00,
2013-02-13 15:25:00,87.7,61.9,29.83,SSW,194,4.9,8.5,41,0.00,,,0.00,WSDL version 420,2013-02-13 20:25:00,
2013-02-13 15:30:00,88.1,61.2,29.83,South,186,4.9,9.4,40,0.00,,,0.00,WSDL version 420,2013-02-13 20:30:00,
2013-02-13 15:35:00,88.2,60.8,29.83,ESE,113,2.9,9.6,40,0.00,,,0.00,WSDL version 420,2013-02-13 20:35:00,
2013-02-13 15:40:00,87.4,60.8,29.83,South,180,2.5,9.6,41,0.00,,,0.00,WSDL version 420,2013-02-13 20:40:00,
2013-02-13 15:45:00,86.7,60.4,29.83,South,191,3.9,5.8,42,0.00,,,0.00,WSDL version 420,2013-02-13 20:45:00,
2013-02-13 15:50:00,86.5,60.7,29.83,South,180,4.7,6.0,42,0.00,,,0.00,WSDL version 420,2013-02-13 20:50:00,
2013-02-13 15:55:00,86.0,60.6,29.83,South,186,3.0,6.0,43,0.00,,,0.00,WSDL version 420,2013-02-13 20:55:00,
2013-02-13 16:00:00,85.5,60.7,29.83,South,188,2.2,3.6,44,0.00,,,0.00,WSDL version 420,2013-02-13 21:00:00,
2013-02-13 16:05:00,85.1,60.8,29.83,South,180,2.5,3.4,44,0.00,,,0.00,WSDL version 420,2013-02-13 21:05:00,
2013-02-13 16:10:00,84.8,60.5,29.83,SSW,195,2.0,2.7,44,0.00,,,0.00,WSDL version 420,2013-02-13 21:10:00,
2013-02-13 16:15:00,85.2,61.5,29.83,SSW,210,2.5,3.1,45,0.00,,,0.00,WSDL version 420,2013-02-13 21:15:00,
2013-02-13 16:20:00,86.1,62.2,29.83,South,180,2.7,6.3,44,0.00,,,0.00,WSDL version 420,2013-02-13 21:20:00,
2013-02-13 16:25:00,86.5,61.9,29.83,SW,225,3.8,7.6,43,0.00,,,0.00,WSDL version 420,2013-02-13 21:25:00,
2013-02-13 16:30:00,86.5,61.7,29.83,SSE,158,3.6,9.2,43,0.00,,,0.00,WSDL version 420,2013-02-13 21:30:00,
2013-02-13 16:35:00,86.1,61.2,29.83,South,180,3.9,9.2,44,0.00,,,0.00,WSDL version 420,2013-02-13 21:35:00,
2013-02-13 16:40:00,85.3,61.0,29.83,SW,214,2.2,5.4,44,0.00,,,0.00,WSDL version 420,2013-02-13 21:40:00,
2013-02-13 16:45:00,85.3,61.6,29.83,South,180,4.3,5.6,45,0.00,,,0.00,WSDL version 420,2013-02-13 21:45:00,
2013-02-13 16:50:00,84.8,61.1,29.85,SSE,158,3.3,5.8,45,0.00,,,0.00,WSDL version 420,2013-02-13 21:50:00,
2013-02-13 16:55:00,84.1,60.5,29.85,South,188,3.7,8.1,45,0.00,,,0.00,WSDL version 420,2013-02-13 21:55:00,
2013-02-13 17:00:00,84.1,61.1,29.85,South,180,3.8,8.1,46,0.00,,,0.00,WSDL version 420,2013-02-13 22:00:00,
2013-02-13 17:05:00,84.4,61.4,29.83,SSE,163,3.5,4.7,46,0.00,,,0.00,WSDL version 420,2013-02-13 22:05:00,
2013-02-13 17:10:00,84.5,61.5,29.83,South,186,5.5,7.6,46,0.00,,,0.00,WSDL version 420,2013-02-13 22:10:00,
2013-02-13 17:15:00,84.2,59.9,29.83,SW,235,1.4,7.6,44,0.00,,,0.00,WSDL version 420,2013-02-13 22:15:00,
2013-02-13 17:20:00,83.6,58.8,29.85,WSW,248,1.6,4.0,43,0.00,,,0.00,WSDL version 420,2013-02-13 22:20:00,
2013-02-13 17:25:00,83.4,58.9,29.85,SSW,194,2.4,3.8,44,0.00,,,0.00,WSDL version 420,2013-02-13 22:25:00,
2013-02-13 17:30:00,83.0,59.7,29.85,SSW,203,2.2,3.6,46,0.00,,,0.00,WSDL version 420,2013-02-13 22:30:00,
2013-02-13 17:35:00,82.6,59.8,29.83,South,180,2.7,5.8,46,0.00,,,0.00,WSDL version 420,2013-02-13 22:35:00,
2013-02-13 17:40:00,82.3,59.4,29.83,South,180,1.6,5.8,46,0.00,,,0.00,WSDL version 420,2013-02-13 22:40:00,
2013-02-13 17:45:00,81.9,59.1,29.83,South,180,2.2,2.7,46,0.00,,,0.00,WSDL version 420,2013-02-13 22:45:00,
2013-02-13 17:50:00,81.5,58.2,29.83,ESE,113,2.2,3.4,45,0.00,,,0.00,WSDL version 420,2013-02-13 22:50:00,
2013-02-13 17:55:00,81.3,57.9,29.85,ESE,113,2.2,3.4,45,0.00,,,0.00,WSDL version 420,2013-02-13 22:55:00,
2013-02-13 18:00:00,80.9,57.7,29.85,SSE,158,0.7,3.4,46,0.00,,,0.00,WSDL version 420,2013-02-13 23:00:00,
2013-02-13 18:05:00,80.5,57.8,29.85,SSW,210,0.7,3.4,46,0.00,,,0.00,WSDL version 420,2013-02-13 23:05:00,
2013-02-13 18:10:00,80.2,57.9,29.85,SW,225,1.3,3.4,47,0.00,,,0.00,WSDL version 420,2013-02-13 23:10:00,
2013-02-13 18:20:00,79.7,58.1,29.85,SSE,163,1.6,3.6,48,0.00,,,0.00,WSDL version 420,2013-02-13 23:20:00,
2013-02-13 18:25:00,79.4,58.0,29.85,South,184,1.6,4.9,48,0.00,,,0.00,WSDL version 420,2013-02-13 23:25:00,
2013-02-13 18:30:00,79.1,58.0,29.85,SW,225,1.1,4.9,49,0.00,,,0.00,WSDL version 420,2013-02-13 23:30:00,
2013-02-13 18:35:00,78.7,58.0,29.85,SSW,203,0.6,2.5,49,0.00,,,0.00,WSDL version 420,2013-02-13 23:35:00,
2013-02-13 18:40:00,78.4,58.2,29.85,SW,233,0.0,2.7,50,0.00,,,0.00,WSDL version 420,2013-02-13 23:40:00,
2013-02-13 18:45:00,78.2,58.2,29.85,SE,143,0.0,2.7,51,0.00,,,0.00,WSDL version 420,2013-02-13 23:45:00,
2013-02-13 18:50:00,77.7,58.2,29.85,SSW,203,0.0,2.0,51,0.00,,,0.00,WSDL version 420,2013-02-13 23:50:00,
2013-02-13 18:55:00,77.4,58.2,29.85,WSW,242,0.0,3.4,52,0.00,,,0.00,WSDL version 420,2013-02-13 23:55:00,
2013-02-13 19:00:00,77.1,58.3,29.85,South,180,0.0,3.4,53,0.00,,,0.00,WSDL version 420,2013-02-14 00:00:00,
2013-02-13 19:05:00,77.0,58.6,29.85,NE,45,1.3,4.0,53,0.00,,,0.00,WSDL version 420,2013-02-14 00:05:00,
2013-02-13 19:10:00,77.1,59.2,29.85,South,180,1.7,4.0,54,0.00,,,0.00,WSDL version 420,2013-02-14 00:10:00,
2013-02-13 19:15:00,76.9,59.0,29.85,SW,225,1.6,3.1,54,0.00,,,0.00,WSDL version 420,2013-02-14 00:15:00,
2013-02-13 19:20:00,76.7,59.4,29.88,SW,225,0.5,2.5,55,0.00,,,0.00,WSDL version 420,2013-02-14 00:20:00,
2013-02-13 19:25:00,76.6,59.2,29.88,South,169,2.0,2.5,55,0.00,,,0.00,WSDL version 420,2013-02-14 00:25:00,
2013-02-13 19:30:00,76.5,59.6,29.88,SW,225,1.8,3.4,56,0.00,,,0.00,WSDL version 420,2013-02-14 00:30:00,
2013-02-13 19:35:00,76.3,59.5,29.88,SSE,165,1.0,3.4,56,0.00,,,0.00,WSDL version 420,2013-02-14 00:35:00,
2013-02-13 19:40:00,76.1,59.7,29.85,SSW,203,1.1,2.0,57,0.00,,,0.00,WSDL version 420,2013-02-14 00:40:00,
2013-02-13 19:45:00,75.8,59.6,29.85,South,186,0.6,1.6,58,0.00,,,0.00,WSDL version 420,2013-02-14 00:45:00,
2013-02-13 19:50:00,75.6,59.8,29.85,SSW,203,0.0,1.6,58,0.00,,,0.00,WSDL version 420,2013-02-14 00:50:00,
2013-02-13 19:55:00,75.3,59.7,29.88,SSW,203,0.0,0.0,59,0.00,,,0.00,WSDL version 420,2013-02-14 00:55:00,
2013-02-13 20:00:00,75.0,59.9,29.88,South,180,0.0,0.0,60,0.00,,,0.00,WSDL version 420,2013-02-14 01:00:00,
2013-02-13 20:05:00,74.8,60.1,29.88,SSW,203,0.0,0.0,61,0.00,,,0.00,WSDL version 420,2013-02-14 01:05:00,
2013-02-13 20:10:00,74.5,60.2,29.88,SSW,203,0.0,0.0,61,0.00,,,0.00,WSDL version 420,2013-02-14 01:10:00,
2013-02-13 20:15:00,74.5,60.6,29.88,SSW,194,0.7,2.0,62,0.00,,,0.00,WSDL version 420,2013-02-14 01:15:00,
2013-02-13 20:20:00,74.4,60.5,29.88,SSE,158,0.0,2.0,62,0.00,,,0.00,WSDL version 420,2013-02-14 01:20:00,
2013-02-13 20:25:00,74.3,60.7,29.88,SSW,195,1.0,2.7,63,0.00,,,0.00,WSDL version 420,2013-02-14 01:25:00,
2013-02-13 20:30:00,74.2,60.8,29.88,South,180,0.4,2.7,63,0.00,,,0.00,WSDL version 420,2013-02-14 01:30:00,
2013-02-13 20:35:00,74.1,60.8,29.88,SSW,203,0.0,2.7,64,0.00,,,0.00,WSDL version 420,2013-02-14 01:35:00,
2013-02-13 20:40:00,73.9,60.9,29.88,South,180,0.0,0.0,64,0.00,,,0.00,WSDL version 420,2013-02-14 01:40:00,
2013-02-13 20:45:00,73.7,60.8,29.88,South,180,0.0,0.0,64,0.00,,,0.00,WSDL version 420,2013-02-14 01:45:00,
2013-02-13 20:50:00,73.4,60.7,29.88,SSW,195,0.0,0.0,65,0.00,,,0.00,WSDL version 420,2013-02-14 01:50:00,
2013-02-13 20:55:00,73.4,60.9,29.88,SSW,195,0.0,0.0,65,0.00,,,0.00,WSDL version 420,2013-02-14 01:55:00,
2013-02-13 21:00:00,73.3,61.3,29.88,SW,225,0.0,0.0,66,0.00,,,0.00,WSDL version 420,2013-02-14 02:00:00,
2013-02-13 21:05:00,73.2,61.4,29.88,SW,225,0.0,0.0,67,0.00,,,0.00,WSDL version 420,2013-02-14 02:05:00,
2013-02-13 21:10:00,73.0,61.4,29.88,South,180,0.0,0.0,67,0.00,,,0.00,WSDL version 420,2013-02-14 02:10:00,
2013-02-13 21:20:00,72.7,61.5,29.88,South,180,0.0,0.0,68,0.00,,,0.00,WSDL version 420,2013-02-14 02:20:00,
2013-02-13 21:25:00,72.6,61.5,29.88,South,180,0.0,0.0,69,0.00,,,0.00,WSDL version 420,2013-02-14 02:25:00,
2013-02-13 21:35:00,72.2,61.5,29.88,South,180,0.0,0.0,69,0.00,,,0.00,WSDL version 420,2013-02-14 02:35:00,
2013-02-13 21:40:00,72.1,61.7,29.91,South,180,0.2,2.0,70,0.00,,,0.00,WSDL version 420,2013-02-14 02:40:00,
2013-02-13 21:45:00,72.0,61.7,29.91,South,180,1.2,5.4,70,0.00,,,0.00,WSDL version 420,2013-02-14 02:45:00,
2013-02-13 21:50:00,72.0,61.9,29.91,South,180,1.7,5.4,71,0.00,,,0.00,WSDL version 420,2013-02-14 02:50:00,
2013-02-13 21:55:00,72.0,62.2,29.88,South,180,1.0,3.6,72,0.00,,,0.00,WSDL version 420,2013-02-14 02:55:00,
2013-02-13 22:00:00,72.1,62.6,29.88,SSE,162,2.0,4.7,72,0.00,,,0.00,WSDL version 420,2013-02-14 03:00:00,
2013-02-13 22:05:00,72.1,62.8,29.91,SE,139,1.9,4.7,73,0.00,,,0.00,WSDL version 420,2013-02-14 03:05:00,
2013-02-13 22:10:00,72.3,63.1,29.91,SSE,167,2.0,3.6,73,0.00,,,0.00,WSDL version 420,2013-02-14 03:10:00,
2013-02-13 22:15:00,72.3,63.3,29.91,South,185,1.2,3.1,74,0.00,,,0.00,WSDL version 420,2013-02-14 03:15:00,
2013-02-13 22:20:00,72.1,63.0,29.91,SSW,207,0.0,3.1,73,0.00,,,0.00,WSDL version 420,2013-02-14 03:20:00,
2013-02-13 22:25:00,72.0,63.2,29.91,SSE,158,0.0,2.9,74,0.00,,,0.00,WSDL version 420,2013-02-14 03:25:00,
2013-02-13 22:30:00,72.0,63.4,29.91,South,176,1.6,2.9,75,0.00,,,0.00,WSDL version 420,2013-02-14 03:30:00,
2013-02-13 22:35:00,71.9,63.6,29.91,South,180,2.0,2.7,75,0.00,,,0.00,WSDL version 420,2013-02-14 03:35:00,
2013-02-13 22:45:00,71.6,63.5,29.91,SSW,197,1.0,2.7,76,0.00,,,0.00,WSDL version 420,2013-02-14 03:45:00,
2013-02-13 22:50:00,71.6,63.6,29.91,South,185,0.3,2.9,76,0.00,,,0.00,WSDL version 420,2013-02-14 03:50:00,
2013-02-13 22:55:00,71.5,64.0,29.91,South,191,0.0,2.9,77,0.00,,,0.00,WSDL version 420,2013-02-14 03:55:00,
2013-02-13 23:00:00,71.4,63.8,29.91,South,174,2.1,3.1,77,0.00,,,0.00,WSDL version 420,2013-02-14 04:00:00,
2013-02-13 23:05:00,71.2,63.8,29.91,South,173,2.5,4.0,78,0.00,,,0.00,WSDL version 420,2013-02-14 04:05:00,
2013-02-13 23:10:00,71.2,64.0,29.91,South,180,2.2,4.0,78,0.00,,,0.00,WSDL version 420,2013-02-14 04:10:00,
2013-02-13 23:15:00,71.2,63.9,29.91,SW,225,2.5,2.7,78,0.00,,,0.00,WSDL version 420,2013-02-14 04:15:00,
2013-02-13 23:20:00,71.1,63.9,29.91,South,180,0.0,3.1,78,0.00,,,0.00,WSDL version 420,2013-02-14 04:20:00,
2013-02-13 23:25:00,70.9,63.7,29.91,SSW,210,0.0,3.1,78,0.00,,,0.00,WSDL version 420,2013-02-14 04:25:00,
2013-02-13 23:30:00,70.8,63.9,29.91,South,186,0.8,2.2,79,0.00,,,0.00,WSDL version 420,2013-02-14 04:30:00,
2013-02-13 23:35:00,70.7,63.9,29.91,SSW,203,0.0,2.2,79,0.00,,,0.00,WSDL version 420,2013-02-14 04:35:00,
2013-02-13 23:40:00,70.6,63.7,29.91,WNW,293,0.0,0.0,79,0.00,,,0.00,WSDL version 420,2013-02-14 04:40:00,
2013-02-13 23:45:00,70.5,63.6,29.91,West,263,0.0,0.0,79,0.00,,,0.00,WSDL version 420,2013-02-14 04:45:00,
2013-02-13 23:50:00,70.3,63.8,29.91,WSW,248,0.0,0.0,80,0.00,,,0.00,WSDL version 420,2013-02-14 04:50:00,
2013-02-13 23:55:00,70.2,63.7,29.91,WSW,248,0.0,0.0,80,0.00,,,0.00,WSDL version 420,2013-02-14 04:55:00,